Terug naar catalogus

STARLINK-37739

ActiefCommunicatieSSO
NORAD 69233·PAYLOAD·🇺🇸 United States

Gelanceerd May 26, 2026 vanaf Vandenberg Space Force Base

Loading…

Volgende Passages (komende 24 uur)

TLE

VersSource: CelesTrak SupGP

Epoch: Sep 15, 2026, 04:28 UTC

1 69233C 26115Y   26258.18659722 -.00058686  00000+0 -18220-2 0  2588
2 69233  97.2832 274.4133 0001443  93.6796 129.7470 15.33463807    13

Volg STARLINK-37739 in realtime met AllMySat

Download on the App Store